When you browse on this site, cookies collect data to enhance your experience and personalize the content and advertising you see.
Visit our Privacy Policy to learn more. By continuing to use the site, you agree to this use of cookies and data.
  • In Spain
  • List of Countries
  • For 7 days
  • Water Temperature
  • Weather Map
  • Weather Widgets
  • user-avatar
    Login

    Hourly Weather Manika

    Today, 21 October, Monday

    Time Temperature Precipitation Wind Pressure Humidity
    00:00 +21°C° 0 mm 2 mps 678 mmHg 71%
    01:00 +21°C° 0 mm 1 mps 677 mmHg 75%
    02:00 +21°C° 0 mm 1 mps 677 mmHg 80%
    03:00 +21°C° 0 mm 1 mps 676 mmHg 76%
    04:00 +21°C° 0 mm 1 mps 676 mmHg 73%
    05:00 +20°C° 0 mm 1 mps 676 mmHg 70%
    06:00 +24°C° 0 mm 1 mps 677 mmHg 56%
    07:00 +28°C° 0 mm 1 mps 678 mmHg 43%
    08:00 +32°C° 0 mm 1 mps 679 mmHg 30%
    09:00 +34°C° 0 mm 1 mps 679 mmHg 24%
    10:00 +37°C° 0 mm 1 mps 679 mmHg 18%
    11:00 +40°C° 0 mm 2 mps 679 mmHg 12%
    12:00 +40°C° 0 mm 2 mps 678 mmHg 12%
    13:00 +40°C° 0 mm 3 mps 677 mmHg 12%
    14:00 +42°C° 0 mm 3 mps 677 mmHg 12%
    15:00 +40°C° 0 mm 4 mps 676 mmHg 13%
    16:00 +38°C° 0 mm 4 mps 676 mmHg 14%
    17:00 +37°C° 0 mm 4 mps 676 mmHg 16%
    18:00 +35°C° 0 mm 4 mps 676 mmHg 20%
    19:00 +33°C° 0 mm 4 mps 676 mmHg 24%
    20:00 +29°C° 0 mm 4 mps 677 mmHg 29%
    21:00 +28°C° 0 mm 3 mps 677 mmHg 35%
    22:00 +27°C° 0 mm 3 mps 677 mmHg 41%
    23:00 +25°C° 0 mm 2 mps 677 mmHg 48%

    Tomorrow, 22 October, Tuesday

    Time Temperature Precipitation Wind Pressure Humidity
    00:00 +24°C° 0 mm 2 mps 676 mmHg 55%
    01:00 +24°C° 0 mm 2 mps 675 mmHg 62%
    02:00 +23°C° 0 mm 2 mps 674 mmHg 69%
    03:00 +21°C° 0 mm 2 mps 675 mmHg 68%
    04:00 +22°C° 0 mm 1 mps 675 mmHg 67%
    05:00 +22°C° 0 mm 1 mps 675 mmHg 66%
    06:00 +25°C° 0 mm 2 mps 676 mmHg 56%
    07:00 +28°C° 0 mm 2 mps 678 mmHg 45%
    08:00 +32°C° 0 mm 2 mps 679 mmHg 34%
    09:00 +34°C° 0 mm 3 mps 679 mmHg 30%
    10:00 +36°C° 0 mm 4 mps 679 mmHg 25%
    11:00 +38°C° 0 mm 4 mps 679 mmHg 21%
    12:00 +39°C° 0 mm 5 mps 679 mmHg 21%
    13:00 +39°C° 0 mm 5 mps 678 mmHg 22%
    14:00 +39°C° 0 mm 6 mps 678 mmHg 22%
    15:00 +36°C° 0 mm 6 mps 677 mmHg 29%
    16:00 +34°C° 0 mm 6 mps 677 mmHg 35%
    17:00 +33°C° 0 mm 6 mps 677 mmHg 42%
    18:00 +30°C° 0 mm 5 mps 677 mmHg 52%
    19:00 +27°C° 0 mm 5 mps 677 mmHg 63%
    20:00 +25°C° 0 mm 5 mps 678 mmHg 74%
    21:00 +23°C° 0 mm 4 mps 678 mmHg 77%
    22:00 +22°C° 0 mm 4 mps 677 mmHg 80%
    23:00 +21°C° 0 mm 3 mps 677 mmHg 83%

    Day after tomorrow, 23 October, Wednesday

    Time Temperature Precipitation Wind Pressure Humidity
    00:00 +21°C° 0 mm 3 mps 677 mmHg 85%
    01:00 +20°C° 0 mm 3 mps 676 mmHg 88%
    02:00 +20°C° 0 mm 2 mps 676 mmHg 90%
    03:00 +20°C° 0 mm 2 mps 676 mmHg 89%
    04:00 +19°C° 0 mm 2 mps 676 mmHg 88%
    05:00 +19°C° 0 mm 2 mps 676 mmHg 87%
    06:00 +22°C° 0 mm 3 mps 677 mmHg 74%
    07:00 +26°C° 0 mm 3 mps 678 mmHg 61%
    08:00 +28°C° 0 mm 3 mps 679 mmHg 49%
    09:00 +31°C° 0 mm 3 mps 679 mmHg 38%
    10:00 +35°C° 0 mm 4 mps 679 mmHg 27%
    11:00 +40°C° 0 mm 4 mps 679 mmHg 17%
    12:00 +40°C° 0 mm 4 mps 678 mmHg 16%
    13:00 +41°C° 0 mm 4 mps 677 mmHg 14%
    14:00 +42°C° 0 mm 4 mps 677 mmHg 13%
    15:00 +40°C° 0 mm 4 mps 676 mmHg 14%
    16:00 +39°C° 0 mm 5 mps 676 mmHg 16%
    17:00 +37°C° 0 mm 5 mps 676 mmHg 17%
    18:00 +35°C° 0 mm 4 mps 676 mmHg 22%
    19:00 +33°C° 0 mm 4 mps 676 mmHg 27%
    20:00 +29°C° 0 mm 3 mps 676 mmHg 31%
    21:00 +28°C° 0 mm 3 mps 676 mmHg 35%
    22:00 +27°C° 0 mm 3 mps 676 mmHg 39%
    23:00 +26°C° 0 mm 2 mps 677 mmHg 43%

    24 October, Thursday

    Time Temperature Precipitation Wind Pressure Humidity
    00:00 +25°C° 0 mm 2 mps 676 mmHg 48%
    01:00 +24°C° 0 mm 2 mps 676 mmHg 53%
    02:00 +23°C° 0 mm 2 mps 675 mmHg 59%
    03:00 +23°C° 0 mm 2 mps 676 mmHg 58%
    04:00 +21°C° 0 mm 2 mps 676 mmHg 58%
    05:00 +22°C° 0 mm 1 mps 677 mmHg 58%
    06:00 +26°C° 0 mm 2 mps 678 mmHg 49%
    07:00 +30°C° 0 mm 2 mps 679 mmHg 39%
    08:00 +34°C° 0 mm 2 mps 679 mmHg 30%
    09:00 +37°C° 0 mm 2 mps 680 mmHg 24%
    10:00 +39°C° 0 mm 3 mps 680 mmHg 18%
    11:00 +42°C° 0 mm 4 mps 680 mmHg 12%
    12:00 +43°C° 0 mm 4 mps 679 mmHg 12%
    13:00 +43°C° 0 mm 5 mps 678 mmHg 12%
    14:00 +43°C° 0 mm 5 mps 677 mmHg 12%
    15:00 +42°C° 0 mm 5 mps 677 mmHg 13%
    16:00 +41°C° 0 mm 5 mps 677 mmHg 14%
    17:00 +40°C° 0 mm 5 mps 677 mmHg 16%
    18:00 +36°C° 0 mm 4 mps 677 mmHg 19%
    19:00 +34°C° 0 mm 4 mps 677 mmHg 23%
    20:00 +30°C° 0 mm 3 mps 677 mmHg 27%
    21:00 +29°C° 0 mm 3 mps 677 mmHg 35%
    22:00 +28°C° 0 mm 3 mps 677 mmHg 44%
    23:00 +26°C° 0 mm 3 mps 677 mmHg 52%

    25 October, Friday

    Time Temperature Precipitation Wind Pressure Humidity
    00:00 +25°C° 0 mm 3 mps 677 mmHg 55%
    01:00 +25°C° 0 mm 2 mps 676 mmHg 59%
    02:00 +24°C° 0 mm 2 mps 676 mmHg 62%
    03:00 +23°C° 0 mm 2 mps 676 mmHg 62%
    04:00 +23°C° 0 mm 2 mps 677 mmHg 62%
    05:00 +23°C° 0 mm 2 mps 677 mmHg 62%
    06:00 +26°C° 0 mm 2 mps 678 mmHg 51%
    07:00 +30°C° 0 mm 2 mps 679 mmHg 41%
    08:00 +34°C° 0 mm 3 mps 680 mmHg 30%
    09:00 +36°C° 0 mm 3 mps 680 mmHg 25%
    10:00 +38°C° 0 mm 3 mps 680 mmHg 20%
    11:00 +40°C° 0 mm 3 mps 680 mmHg 15%
    12:00 +42°C° 0 mm 3 mps 679 mmHg 14%
    13:00 +42°C° 0 mm 4 mps 678 mmHg 13%
    14:00 +43°C° 0 mm 4 mps 677 mmHg 12%
    15:00 +42°C° 0 mm 4 mps 677 mmHg 13%
    16:00 +40°C° 0 mm 4 mps 677 mmHg 15%
    17:00 +38°C° 0 mm 4 mps 676 mmHg 16%
    18:00 +36°C° 0 mm 4 mps 676 mmHg 20%
    19:00 +33°C° 0 mm 3 mps 677 mmHg 23%
    20:00 +30°C° 0 mm 2 mps 677 mmHg 27%
    21:00 +29°C° 0 mm 3 mps 677 mmHg 30%
    22:00 +28°C° 0 mm 3 mps 677 mmHg 32%
    23:00 +27°C° 0 mm 3 mps 677 mmHg 34%

    26 October, Saturday

    Time Temperature Precipitation Wind Pressure Humidity
    00:00 +26°C° 0 mm 2 mps 677 mmHg 38%
    01:00 +25°C° 0 mm 2 mps 676 mmHg 42%
    02:00 +24°C° 0 mm 2 mps 676 mmHg 45%
    03:00 +24°C° 0 mm 2 mps 676 mmHg 47%
    04:00 +23°C° 0 mm 2 mps 676 mmHg 48%
    05:00 +23°C° 0 mm 2 mps 676 mmHg 50%
    06:00 +27°C° 0 mm 2 mps 677 mmHg 42%
    07:00 +30°C° 0 mm 2 mps 678 mmHg 34%
    08:00 +35°C° 0 mm 2 mps 679 mmHg 26%
    09:00 +37°C° 0 mm 2 mps 679 mmHg 21%
    10:00 +40°C° 0 mm 2 mps 679 mmHg 17%
    11:00 +42°C° 0 mm 2 mps 679 mmHg 13%
    12:00 +43°C° 0 mm 3 mps 678 mmHg 12%
    13:00 +43°C° 0 mm 4 mps 677 mmHg 11%
    14:00 +43°C° 0 mm 5 mps 677 mmHg 10%
    15:00 +42°C° 0 mm 4 mps 676 mmHg 11%
    16:00 +41°C° 0 mm 4 mps 676 mmHg 12%
    17:00 +40°C° 0 mm 4 mps 676 mmHg 13%
    18:00 +37°C° 0 mm 4 mps 676 mmHg 17%
    19:00 +34°C° 0 mm 4 mps 676 mmHg 22%
    20:00 +32°C° 0 mm 4 mps 676 mmHg 27%
    21:00 +29°C° 0 mm 4 mps 676 mmHg 33%
    22:00 +28°C° 0 mm 4 mps 677 mmHg 39%
    23:00 +27°C° 0 mm 4 mps 677 mmHg 45%

    27 October, Sunday

    Time Temperature Precipitation Wind Pressure Humidity
    00:00 +26°C° 0 mm 3 mps 676 mmHg 48%
    01:00 +25°C° 0 mm 3 mps 676 mmHg 50%
    02:00 +24°C° 0 mm 2 mps 675 mmHg 53%
    03:00 +23°C° 0 mm 2 mps 675 mmHg 54%
    04:00 +23°C° 0 mm 2 mps 675 mmHg 55%
    05:00 +21°C° 0 mm 2 mps 675 mmHg 56%
    06:00 +26°C° 0 mm 2 mps 676 mmHg 46%
    07:00 +29°C° 0 mm 2 mps 677 mmHg 35%
    08:00 +34°C° 0 mm 2 mps 678 mmHg 25%
    09:00 +36°C° 0 mm 3 mps 678 mmHg 21%
    10:00 +39°C° 0 mm 3 mps 678 mmHg 18%
    11:00 +42°C° 0 mm 3 mps 678 mmHg 14%
    12:00 +42°C° 0 mm 3 mps 677 mmHg 14%
    13:00 +43°C° 0 mm 4 mps 677 mmHg 13%
    14:00 +43°C° 0 mm 5 mps 676 mmHg 12%
    15:00 +42°C° 0 mm 4 mps 676 mmHg 12%
    16:00 +41°C° 0 mm 4 mps 675 mmHg 13%
    17:00 +40°C° 0 mm 4 mps 675 mmHg 13%
    18:00 +36°C° 0 mm 4 mps 675 mmHg 16%
    19:00 +34°C° 0 mm 3 mps 675 mmHg 19%
    20:00 +30°C° 0 mm 3 mps 675 mmHg 22%
    21:00 +29°C° 0 mm 3 mps 675 mmHg 25%
    22:00 +28°C° 0 mm 3 mps 675 mmHg 27%
    23:00 +27°C° 0 mm 2 mps 675 mmHg 30%
    Show more